Showing default

ICEYE-X25, 56963

Orbit data source: Space-Track

ICEYE-X25, 56963 is a payload satellite owned by ICEYE (FI) in SSO that was launched on Mon, 12 Jun 2023 UTC via an FALCON 9 launch vehicle from the Air Force Western Test Range (AFWTR). Payload-class satellites include a variety of spacecraft equipped with specific instruments for various scientific and technological missions. These include communications satellites like Starlink; space stations such as the ISS; scientific satellites like the Hubble; Earth observation satellites from companies like Planet Labs, Umbra, and HawkEye 360; GPS; miniature CubeSats for education and research; and military/defense satellites.

Not visible in the next 10 days
Identifier
56963, 2023-084AH
Orbit
SSO
Country
Flag of FIFI / FIN
Related business
Manufacturer
ICEYE
Mission
Operational Commercial Radar Imaging
Bus & Motor
ICEYE, Unknown motor
Mass
90 kg wet, 89 kg dry
Launch date (UTC)
2023-06-12 (2 years ago)
Launch vehicle
FALCON 9
Launch site
Air Force Western Test Range (AFWTR)
Object type
Payload
Rocket body
Debris
Shape & HBR
Box + 1 Pan, 1.6 m
Radar Cross Section
0.825 m², Medium (>0.1 m² and < 1m²)

Expand to show TLE details & history
Last TLE update: 15 hours ago

TLE from 15 hours ago
0 ICEYE-X25
1 56963U 23084AH  25311.28440032  .00040650  00000-0  10160-2 0  9996
2 56963  97.5774  81.0028 0006120  22.3113 337.8397 15.40009626133594
Epoch: 2025-11-07T06:49Z
TLE epoch observation values (Epoch: 2025-11-07T06:49:32.187Z)
Latitude
-0.00009°
Longitude
-68.11187°
Altitude
445.325 km
Speed
7.647 km/s
True Right ascension
05h 24m 00s
True Declination
0° 00' 00"
Sunlit
Object was in full shadow at epoch
Visualization orbit readout
Latitude
Unknown
Longitude
Unknown
Altitude
Unknown
Speed
Unknown
Apparent Right ascension
Unknown
Apparent Declination
Unknown
Sunlit
N/A
Visualization observer readout
Local Sidereal Time
17:41:52
Azimuth
Unknown
Elevation
Unknown
Doppler factor
Unknown
Orbital elements
Apogee altitude
447.202 km
Perigee altitude
438.853 km
Semi-major axis
6,821.165 km
Eccentricity
0.00061
Inclination
97.5774°
RAAN
81.0028°
Arg. of periapsis
22.3113°
True anomaly
337.81323°
Mean anomaly
337.8397°
Eccentric anomaly
337.82647°
Mean motion
3.85261 °/min
Orbital period
93.44 mins
BSTAR
0.001016
Loading maneuver chart data...
Computing Atmospheric mass density...
Loading historical data...
Loading historical data...
Loading historical data...
Loading historical data...
Loading historical data...
Loading historical data...
Loading historical data...

Documentation

Showing up to 5 results
|